Location: Hagfors
(60.0352°N, 13.6940°E)
Time: 19:50:57
(UTC+01:00)

ISS - Visible Passes

Search period start: 29 November 2021 00:00
Search period end: 09 December 2021 00:00
Orbit: 417 x 423 km, 51.6° (Epoch: 29 November)

Date Brightness Start Highest point End Pass type
(mag) Time Alt. Az. Time Alt. Az. Time Alt. Az.
29 Nov -1.6 17:07:03 10° SW 17:09:34 19° S 17:11:56 11° SE visible
29 Nov -1.2 18:43:14 10° WSW 18:44:55 17° SSW 18:44:55 17° SSW visible
30 Nov -1.4 16:20:13 10° SSW 16:22:35 18° SSE 16:24:57 10° ESE visible
30 Nov -1.6 17:56:07 10° SW 17:58:39 19° S 17:59:39 17° SSE visible
01 Dec -1.5 17:09:04 10° SW 17:11:39 20° S 17:14:13 10° SE visible
01 Dec -1.0 18:45:51 10° SW 18:47:24 14° SSW 18:47:24 14° SSW visible
02 Dec -1.4 16:22:03 10° SW 16:24:38 20° S 16:27:13 10° SE visible
02 Dec -1.2 17:58:31 10° WSW 18:00:40 16° SSW 18:02:14 12° SSE visible
03 Dec -1.2 17:11:17 10° WSW 17:13:40 18° SSW 17:16:03 10° SSE visible
04 Dec -1.2 16:24:08 10° SW 16:26:39 19° S 16:29:10 10° SE visible
04 Dec -0.7 18:01:32 10° SW 18:02:35 11° SSW 18:03:37 10° S visible
05 Dec -0.8 17:13:51 10° SW 17:15:36 14° SSW 17:17:22 10° S visible
06 Dec -0.8 16:26:27 10° WSW 16:28:36 16° SSW 16:30:44 10° SSE visible
08 Dec -0.3 16:29:26 10° SW 16:30:25 11° SSW 16:31:24 10° S visible
